Terminal Aerodrome Forecast
Issued by NWS Miami, FL

Home | Current Version | Previous Version | Text Only | Print | Product List | Glossary On
Versions: 1 2 3 4 5 6 7 8 9 10 11 12 13 14 15 16 17 18 19 20 21 22 23 24 25 26 27 28 29 30 31 32 33 34 35 36 37 38 39 40 41 42
000
FTUS42 KMFL 222323
TAFAPF
TAF
KAPF 222323Z 2300/2324 15003KT P6SM VCSH FEW030 OVC120
     FM231300 06012G18KT P6SM VCSH SCT030 BKN150=

USA.gov is the U.S. government's official web portal to all federal, state and local government web resources and services.